User: anonymous   Login
Location: Unspecified
(0.0000°N, 0.0000°E)
Time: 04:02:06
(UTC+00:00)
Language:

TBA - TO BE ASSIGNED - Orbit

View from above orbital plane
View from above orbital plane
View from above satellite
View from above satellite

Ground track
Ground track

The orbit is defined by the following mean orbital elements,

1 67914U          26145.44779247 +.00000000 +00000-0 +38293-3 0 00000
2 67914  43.0016 171.5605 0001381 265.0857  94.9837 15.27592145    05
Epoch (UTC): 25 May 2026 10:44:49
Eccentricity: 0.0001381
inclination: 43.0016°
perigee height: 482 km
apogee height: 484 km
right ascension of ascending node: 171.5605°
argument of perigee: 265.0857°
revolutions per day: 15.27592145
mean anomaly at epoch: 94.9837°

The dashed part of the orbit path shows where the satellite is in the earth's shadow,  

DLR